Regional Weather Roundup
Issued by NWS

Home | Current Version | Previous Version | Graphics & Text | Print | Product List | Glossary On
Versions: 1 2 3 4 5 6 7 8 9 10 11 12 13 14 15 16 17 18 19 20 21 22 23 24 25 26 27 28 29 30 31 32 33 34 35 36 37 38 39 40 41 42 43 44 45 46 47 48 49 50
000
ASUS43 KIND 222309
RWRIN

WEATHER ROUNDUP FOR INDIANA
NATIONAL WEATHER SERVICE INDIANAPOLIS IN
600 PM EST SUN JAN 22 2017

NOTE: "FAIR" INDICATES FEW OR NO CLOUDS BELOW 12,000 FEET WITH NO
SIGNIFICANT WEATHER AND/OR OBSTRUCTIONS TO VISIBILITY.

* - STATION DOES NOT REPORT WEATHER SUCH AS PRECIPITATION OR FOG.

+ - STATION NOT QUALITY CONTROLLED BY THE NATIONAL WEATHER SERVICE.
    USE DATA WITH CAUTION...ESPECIALLY DEWPOINT AND RELATIVE
    HUMIDITY OBSERVATIONS.

INZ001>003-010>013-019-020-230000-
NORTHWEST INDIANA

CITY           SKY/WX    TMP DP  RH WIND       PRES   REMARKS
GARY /AIRPORT/ FOG       41  41 100 N12       29.64  VSB 1/4
KNOX *+        CLOUDY    43  34  70 N9        29.59R
LA PORTE +     CLOUDY    41  40  98 N10       29.61R FOG
MICHIGAN CITY+ FOG       37  37 100 N7        29.63R VSB 1/4
MONTICELLO +   MOCLDY    46  44  92 N9        29.55S FOG
RENSSELAER +   CLOUDY    41  41 100 N12       29.59S
VALPARAISO     CLOUDY    42  41  96 N12G20    29.61S FOG

$$

LMZ046-743>745-230000-
SOUTHERN LAKE MICHIGAN

STATION/POSITION TIME  TEMP    WIND        PRES    WAVE
                       AIR SEA DIR/SP/G            HT
                 (UTC) (F)     (DEG/KT/KT) (MB)    (FT)
BURNS HARBOR     2230   36      10/  9/ 11 1004.1S
MICHIGAN CITY    2240   37     340/ 12/ 12   N/A

$$

INZ004-005-014>016-021>024-230000-
NORTH CENTRAL INDIANA

CITY           SKY/WX    TMP DP  RH WIND       PRES   REMARKS
ELKHART        CLOUDY    41  41 100 N5        29.60S FOG
GOSHEN         CLOUDY    45  42  89 N12       29.59R FOG
LOGANSPORT +   PTCLDY    50  46  87 N12       29.55F
PERU/GRISSOM   CLOUDY    51  51  99 N9        29.52F
ROCHESTER +    CLOUDY    50  50 100 N8        29.57S FOG
SOUTH BEND     FOG       42  41  96 N8        29.61R VSB 1/2
WARSAW +       CLOUDY    46  46 100 N7        29.58R

$$

INZ006>009-017-018-025>027-230000-
NORTHEAST INDIANA

CITY           SKY/WX    TMP DP  RH WIND       PRES   REMARKS
ANGOLA *+      CLOUDY    48  37  66 CALM      29.58R
AUBURN +       CLOUDY    52  46  82 N6        29.57S
FORT WAYNE     CLOUDY    54  49  83 N9        29.54F
HUNTINGTON +   PTCLDY    52  50  93 N9        29.54S
KENDALLVILLE + CLOUDY    49  48  96 N7        29.58R

$$

INZ028-029-035-036-043>045-051>053-230000-
WEST CENTRAL INDIANA

CITY           SKY/WX    TMP DP  RH WIND       PRES   REMARKS
CRAWFORDSVL +  CLOUDY    50  50 100 N13       29.51R
GREENCASTLE +  MOCLDY    54  52  94 N13       29.47F
LAFAYETTE      MOCLDY    48  46  93 N12       29.54R
TERRE HAUTE    PTCLDY    58  51  78 N15       29.45F

$$

INZ030>032-037>040-046>048-054>057-064-065-230000-
CENTRAL INDIANA

CITY           SKY/WX    TMP DP  RH WIND       PRES   REMARKS
CP ATTERBURY + PTCLDY    57  50  77 N13       29.43F
COLUMBUS       CLEAR     55  54  94 N14       29.42F
FISHERS *+     PTCLDY    55  54  94 N5        29.47F
FRANKFORT +    CLOUDY    55  51  87 NE12G17   29.53F
GREENWOOD *+   CLOUDY    59  52  75 NE10G18   29.46F
INDIANAPOLIS   CLOUDY    58  52  80 N13       29.45F
-EAGLE CREEK   CLOUDY    58  51  78 N13       29.46F
KOKOMO +       CLOUDY    53  50  89 N14       29.53F
MARION +       PTCLDY    55  50  82 N12       29.52F
MT COMFORT *+  CLOUDY    55  50  82 NE12      29.47F
SHELBYVILLE    CLOUDY    59  50  72 N12       29.44F
ZIONSVILLE +   MOCLDY    55  51  89 N14       29.49F

$$

INZ033-034-041-042-049-050-058-059-230000-
EAST CENTRAL INDIANA

CITY           SKY/WX    TMP DP  RH WIND       PRES   REMARKS
MUNCIE         CLOUDY    57  52  83 NE14      29.50F

$$

INZ060-061-067>069-081>083-085>088-230000-
SOUTHWEST INDIANA

CITY           SKY/WX    TMP DP  RH WIND       PRES   REMARKS
EVANSVILLE     PTCLDY    59  50  72 NE9       29.40R
HUNTINGBURG *+ CLOUDY    58  50  75 NE9       29.40R
WASHINGTON +   CLEAR     56  50  78 N15       29.39S

$$

INZ062-063-066-070>080-084-089>092-230000-
SOUTH CENTRAL AND SOUTHEAST INDIANA

CITY           SKY/WX    TMP DP  RH WIND       PRES   REMARKS
BLOOMINGTON    PTCLDY    58  48  69 N13       29.41F
MADISON *+     CLEAR     59  50  72 N12G22    29.43R
NORTH VERNON + PTCLDY    59  52  77 N10       29.40F
SEYMOUR +      CLEAR     59  50  72 NE15G21   29.41F

$$




USA.gov is the U.S. government's official web portal to all federal, state and local government web resources and services.